Погода в Брусове

Россия / Тверская область     57°51′24″N   35°24′26″E
темп.,
°C
ветер,
м/с
пор.,
м/с
влажн.,
%
обл.,
%
осадки,
мм/ч
давл.,
гПа
погр.,
м
27 января, ср
ср2700:00−1юв41186100 0.7 1001951
03:00−2юв51296100 0.9 1000814
06:00−1юв51196100 1.3 998884
09:00−1ююв41094100 2.7 996909
12:00−1ю51196100 0.9 997833
15:000юз4988100 1.3 999842
18:00−1юз3109399 0.2 1002496
21:00−4юз239495 0.3 100351
28 января, чт
чт2800:00−6ююз23960 0.0 100533
03:00−6ю129739 0.0 100622
06:00−6ю129793 0.0 100721
09:00−7юв229790 0.0 100721
12:00−4вюв2395100 0.0 1007205
15:00−3в2395100 0.0 1005257
18:00−3всв2597100 0.5 1004218
21:00−3всв3697100 1.8 1002269
29 января, пт
пт2900:00−2в2598100 0.8 1001182
03:00+2вюв31099100 1.3 999364
06:00+1юв410100100 0.3 996388
09:00+1юв41096100 0.4 995503
12:00+2юв41199100 0.1 994509
15:00+1юв51198100 0.5 993751
18:00−2юв4129178 0.1 992641
21:00−3юв4129387 0.2 991582
30 января, сб
сб3000:00−3юв4109395 0.1 990607
03:00−3юв399697 0.2 989464
06:00−3ююв3895100 0.3 988462
09:00−7ююв3895100 0.4 988367
12:00−4ю4893100 0.3 989580
15:00−4ююз4892100 0.6 990714
18:00−5ю4109299 0.3 991622
21:00−6ю4109299 0.3 993628
31 января, вс
вс3100:00−7ю3893100 0.1 993435
03:00−9ююв2796100 0.1 993202
06:00−9ююв2497100 0.0 992125
09:00−10юв129898 0.0 99021
12:00−6ссв1195100 0.0 989120
15:00−5ссз1394100 0.1 988234
18:00−8зсз2395100 0.0 98883
21:00−9з399686 0.0 990251